Time,TemperatureF,DewpointF,PressureIn,WindDirection,WindDirectionDegrees,WindSpeedMPH,WindSpeedGustMPH,Humidity,HourlyPrecipIn,Conditions,Clouds,dailyrainin,SoftwareType,DateUTC
2013-08-25 00:00:00,61.0,45.7,29.77,ENE,78,0.0,0.0,57,0.00,,CLR,0.18,VWS V14.01,2013-08-25 06:00:00,
2013-08-25 00:05:00,60.5,45.7,29.78,ENE,78,0.0,0.0,58,0.00,,CLR,0.00,VWS V14.01,2013-08-25 06:05:00,
2013-08-25 00:10:00,60.1,44.8,29.78,ENE,78,0.0,0.0,57,0.00,,CLR,0.00,VWS V14.01,2013-08-25 06:10:00,
2013-08-25 00:15:00,59.9,45.1,29.78,ENE,78,0.0,0.0,58,0.00,,CLR,0.00,VWS V14.01,2013-08-25 06:15:00,
2013-08-25 00:20:00,59.8,45.0,29.78,ENE,78,0.0,0.0,58,0.00,,CLR,0.00,VWS V14.01,2013-08-25 06:20:00,
2013-08-25 00:25:00,59.8,45.5,29.78,ENE,78,0.0,0.0,59,0.00,,CLR,0.00,VWS V14.01,2013-08-25 06:25:00,
2013-08-25 00:30:00,59.8,45.5,29.78,ENE,78,0.0,0.0,59,0.00,,CLR,0.00,VWS V14.01,2013-08-25 06:30:00,
2013-08-25 00:35:00,59.6,44.8,29.77,ENE,78,0.0,0.0,58,0.00,,CLR,0.00,VWS V14.01,2013-08-25 06:35:00,
2013-08-25 00:40:00,59.5,45.6,29.77,ENE,78,0.0,0.0,60,0.00,,CLR,0.00,VWS V14.01,2013-08-25 06:40:00,
2013-08-25 00:45:00,59.3,44.5,29.78,ENE,78,0.0,0.0,58,0.00,,CLR,0.00,VWS V14.01,2013-08-25 06:45:00,
2013-08-25 00:50:00,59.3,45.0,29.78,ENE,78,0.0,0.0,59,0.00,,CLR,0.00,VWS V14.01,2013-08-25 06:50:00,
2013-08-25 00:55:00,59.2,45.3,29.78,ENE,78,0.0,0.0,60,0.00,,CLR,0.00,VWS V14.01,2013-08-25 06:55:00,
2013-08-25 01:00:00,59.0,44.3,29.79,NNE,23,0.0,2.0,58,0.00,,CLR,0.00,VWS V14.01,2013-08-25 07:00:00,
2013-08-25 01:06:00,59.5,43.3,29.79,North,351,0.0,5.0,55,0.00,,CLR,0.00,VWS V14.01,2013-08-25 07:06:00,
2013-08-25 01:11:00,59.8,44.5,29.79,WNW,291,0.0,0.0,57,0.00,,CLR,0.00,VWS V14.01,2013-08-25 07:11:00,
2013-08-25 01:16:00,59.6,45.3,29.82,WNW,292,0.0,0.0,59,0.00,,CLR,0.00,VWS V14.01,2013-08-25 07:16:00,
2013-08-25 01:21:00,59.3,45.0,29.82,WNW,292,0.0,0.0,59,0.00,,CLR,0.00,VWS V14.01,2013-08-25 07:21:00,
2013-08-25 01:26:00,59.2,44.9,29.82,WNW,292,0.0,0.0,59,0.00,,CLR,0.00,VWS V14.01,2013-08-25 07:26:00,
2013-08-25 01:31:00,58.9,45.1,29.82,WNW,292,0.0,0.0,60,0.00,,CLR,0.00,VWS V14.01,2013-08-25 07:31:00,
2013-08-25 01:36:00,58.7,44.4,29.82,WNW,292,0.0,0.0,59,0.00,,CLR,0.00,VWS V14.01,2013-08-25 07:36:00,
2013-08-25 01:41:00,58.6,44.8,29.82,WNW,292,0.0,0.0,60,0.00,,CLR,0.00,VWS V14.01,2013-08-25 07:41:00,
2013-08-25 01:46:00,58.4,44.1,29.83,WNW,292,0.0,0.0,59,0.00,,CLR,0.00,VWS V14.01,2013-08-25 07:46:00,
2013-08-25 01:51:00,58.3,45.8,29.83,WNW,292,0.0,0.0,63,0.00,,CLR,0.00,VWS V14.01,2013-08-25 07:51:00,
2013-08-25 01:56:00,58.0,45.1,29.83,WNW,292,0.0,0.0,62,0.00,,CLR,0.00,VWS V14.01,2013-08-25 07:56:00,
2013-08-25 02:01:00,57.6,45.1,29.82,WNW,292,0.0,0.0,63,0.00,,CLR,0.00,VWS V14.01,2013-08-25 08:01:00,
2013-08-25 02:06:00,57.5,43.7,29.82,WNW,292,0.0,0.0,60,0.00,,CLR,0.00,VWS V14.01,2013-08-25 08:06:00,
2013-08-25 02:11:00,57.5,44.2,29.82,WNW,292,0.0,0.0,61,0.00,,CLR,0.00,VWS V14.01,2013-08-25 08:11:00,
2013-08-25 02:16:00,57.5,44.6,29.82,WNW,292,0.0,0.0,62,0.00,,CLR,0.00,VWS V14.01,2013-08-25 08:16:00,
2013-08-25 02:21:00,57.6,45.9,29.82,WNW,292,0.0,0.0,65,0.00,,CLR,0.00,VWS V14.01,2013-08-25 08:21:00,
2013-08-25 02:26:00,57.6,44.7,29.82,WNW,292,0.0,0.0,62,0.00,,CLR,0.00,VWS V14.01,2013-08-25 08:26:00,
2013-08-25 02:31:00,57.6,44.7,29.82,WNW,292,0.0,0.0,62,0.00,,CLR,0.00,VWS V14.01,2013-08-25 08:31:00,
2013-08-25 02:36:00,57.6,44.3,29.82,NE,41,0.0,0.0,61,0.00,,CLR,0.00,VWS V14.01,2013-08-25 08:36:00,
2013-08-25 02:41:00,58.0,45.1,29.82,NE,49,0.0,0.0,62,0.00,,CLR,0.00,VWS V14.01,2013-08-25 08:41:00,
2013-08-25 02:47:00,58.1,45.6,29.82,NE,50,0.0,0.0,63,0.00,,CLR,0.00,VWS V14.01,2013-08-25 08:47:00,
2013-08-25 02:52:00,58.4,45.0,29.82,NE,42,0.0,0.0,61,0.00,,CLR,0.00,VWS V14.01,2013-08-25 08:52:00,
2013-08-25 02:57:00,58.4,45.5,29.82,NE,42,0.0,0.0,62,0.00,,CLR,0.00,VWS V14.01,2013-08-25 08:57:00,
2013-08-25 03:02:00,58.6,46.1,29.81,NNW,336,0.0,0.0,63,0.00,,CLR,0.00,VWS V14.01,2013-08-25 09:02:00,
2013-08-25 03:07:00,58.7,45.7,29.81,NNW,336,0.0,0.0,62,0.00,,CLR,0.00,VWS V14.01,2013-08-25 09:07:00,
2013-08-25 03:12:00,58.6,45.6,29.81,NNW,336,0.0,0.0,62,0.00,,CLR,0.00,VWS V14.01,2013-08-25 09:12:00,
2013-08-25 03:17:00,58.4,45.5,29.83,NNW,336,0.0,0.0,62,0.00,,CLR,0.00,VWS V14.01,2013-08-25 09:17:00,
2013-08-25 03:22:00,58.4,45.5,29.83,NNW,336,0.0,0.0,62,0.00,,CLR,0.00,VWS V14.01,2013-08-25 09:22:00,
2013-08-25 03:27:00,58.3,46.2,29.83,NNW,336,0.0,0.0,64,0.00,,CLR,0.00,VWS V14.01,2013-08-25 09:27:00,
2013-08-25 03:32:00,58.1,46.4,29.84,NNW,336,0.0,0.0,65,0.00,,CLR,0.00,VWS V14.01,2013-08-25 09:32:00,
2013-08-25 03:37:00,58.0,45.9,29.84,NE,53,0.0,0.0,64,0.00,,CLR,0.00,VWS V14.01,2013-08-25 09:37:00,
2013-08-25 03:42:00,57.8,45.3,29.84,NE,53,0.0,0.0,63,0.00,,CLR,0.00,VWS V14.01,2013-08-25 09:42:00,
2013-08-25 03:47:00,57.6,45.5,29.84,NE,53,0.0,0.0,64,0.00,,CLR,0.00,VWS V14.01,2013-08-25 09:47:00,
2013-08-25 03:52:00,57.6,44.3,29.84,NE,52,0.0,0.0,61,0.00,,CLR,0.00,VWS V14.01,2013-08-25 09:52:00,
2013-08-25 03:58:00,57.8,45.3,29.84,NE,36,0.0,1.0,63,0.00,,CLR,0.00,VWS V14.01,2013-08-25 09:58:00,
2013-08-25 04:03:00,57.8,44.9,29.84,NE,36,0.0,0.0,62,0.00,,CLR,0.00,VWS V14.01,2013-08-25 10:03:00,
2013-08-25 04:08:00,58.0,44.6,29.84,NE,36,0.0,0.0,61,0.00,,CLR,0.00,VWS V14.01,2013-08-25 10:08:00,
2013-08-25 04:13:00,58.1,44.7,29.84,NE,36,0.0,0.0,61,0.00,,CLR,0.00,VWS V14.01,2013-08-25 10:13:00,
2013-08-25 04:18:00,58.1,44.3,29.79,NE,36,0.0,0.0,60,0.00,,CLR,0.00,VWS V14.01,2013-08-25 10:18:00,
2013-08-25 04:23:00,58.1,45.6,29.79,NE,36,0.0,0.0,63,0.00,,CLR,0.00,VWS V14.01,2013-08-25 10:23:00,
2013-08-25 04:28:00,58.0,44.2,29.79,NE,36,0.0,0.0,60,0.00,,CLR,0.00,VWS V14.01,2013-08-25 10:28:00,
2013-08-25 04:33:00,57.6,45.1,29.80,NE,36,0.0,0.0,63,0.00,,CLR,0.00,VWS V14.01,2013-08-25 10:33:00,
2013-08-25 04:38:00,57.5,45.4,29.80,NE,36,0.0,0.0,64,0.00,,CLR,0.00,VWS V14.01,2013-08-25 10:38:00,
2013-08-25 04:43:00,57.0,45.8,29.80,NE,36,0.0,0.0,66,0.00,,CLR,0.00,VWS V14.01,2013-08-25 10:43:00,
2013-08-25 04:48:00,56.9,45.3,29.80,NE,36,0.0,0.0,65,0.00,,CLR,0.00,VWS V14.01,2013-08-25 10:48:00,
2013-08-25 04:53:00,56.6,45.4,29.80,NE,36,0.0,0.0,66,0.00,,CLR,0.00,VWS V14.01,2013-08-25 10:53:00,
2013-08-25 04:58:00,56.5,44.9,29.80,NE,36,0.0,0.0,65,0.00,,CLR,0.00,VWS V14.01,2013-08-25 10:58:00,
2013-08-25 05:03:00,56.3,45.5,29.81,NE,36,0.0,0.0,67,0.00,,CLR,0.00,VWS V14.01,2013-08-25 11:03:00,
2013-08-25 05:08:00,56.2,45.4,29.81,NE,36,0.0,0.0,67,0.00,,CLR,0.00,VWS V14.01,2013-08-25 11:08:00,
2013-08-25 05:13:00,56.2,45.4,29.81,NE,36,0.0,0.0,67,0.00,,CLR,0.00,VWS V14.01,2013-08-25 11:13:00,
2013-08-25 05:18:00,56.0,44.4,29.81,NE,36,0.0,0.0,65,0.00,,CLR,0.00,VWS V14.01,2013-08-25 11:18:00,
2013-08-25 05:23:00,56.0,45.2,29.81,NE,36,0.0,0.0,67,0.00,,CLR,0.00,VWS V14.01,2013-08-25 11:23:00,
2013-08-25 05:28:00,56.2,45.4,29.81,NE,36,0.0,0.0,67,0.00,,CLR,0.00,VWS V14.01,2013-08-25 11:28:00,
2013-08-25 05:33:00,56.2,45.0,29.81,NE,36,0.0,0.0,66,0.00,,CLR,0.00,VWS V14.01,2013-08-25 11:33:00,
2013-08-25 05:38:00,56.2,44.2,29.81,NE,36,0.0,0.0,64,0.00,,CLR,0.00,VWS V14.01,2013-08-25 11:38:00,
2013-08-25 05:44:00,56.2,44.6,29.81,NE,36,0.0,0.0,65,0.00,,CLR,0.00,VWS V14.01,2013-08-25 11:44:00,
2013-08-25 05:49:00,56.2,44.2,29.81,NE,36,0.0,0.0,64,0.00,,CLR,0.00,VWS V14.01,2013-08-25 11:49:00,
2013-08-25 05:54:00,56.2,44.2,29.81,NE,36,0.0,0.0,64,0.00,,CLR,0.00,VWS V14.01,2013-08-25 11:54:00,
2013-08-25 05:59:00,56.2,44.2,29.81,NE,36,0.0,0.0,64,0.00,,CLR,0.00,VWS V14.01,2013-08-25 11:59:00,
2013-08-25 06:04:00,56.3,44.3,29.81,ENE,62,0.0,0.0,64,0.00,,CLR,0.00,VWS V14.01,2013-08-25 12:04:00,
2013-08-25 06:09:00,56.3,43.9,29.81,ENE,62,0.0,0.0,63,0.00,,CLR,0.00,VWS V14.01,2013-08-25 12:09:00,
2013-08-25 06:14:00,56.5,44.5,29.81,NNE,25,0.0,3.0,64,0.00,,CLR,0.00,VWS V14.01,2013-08-25 12:14:00,
2013-08-25 06:19:00,56.7,44.7,29.81,North,360,0.0,3.0,64,0.00,,CLR,0.00,VWS V14.01,2013-08-25 12:19:00,
2013-08-25 06:24:00,56.9,44.5,29.81,North,5,0.0,0.0,63,0.00,,CLR,0.00,VWS V14.01,2013-08-25 12:24:00,
2013-08-25 06:29:00,57.0,43.7,29.81,ENE,71,1.0,2.0,61,0.00,,CLR,0.00,VWS V14.01,2013-08-25 12:29:00,
2013-08-25 06:34:00,57.3,44.0,29.82,ENE,78,1.0,1.0,61,0.00,,CLR,0.00,VWS V14.01,2013-08-25 12:34:00,
2013-08-25 06:39:00,57.5,44.2,29.82,NE,36,0.0,1.0,61,0.00,,CLR,0.00,VWS V14.01,2013-08-25 12:39:00,
2013-08-25 06:44:00,57.6,45.1,29.82,NE,36,0.0,0.0,63,0.00,,CLR,0.00,VWS V14.01,2013-08-25 12:44:00,
2013-08-25 06:49:00,57.6,44.7,29.82,NE,36,0.0,0.0,62,0.00,,CLR,0.00,VWS V14.01,2013-08-25 12:49:00,
2013-08-25 06:54:00,57.5,45.0,29.82,NE,36,0.0,0.0,63,0.00,,CLR,0.00,VWS V14.01,2013-08-25 12:54:00,
2013-08-25 06:59:00,57.2,44.7,29.82,NE,36,0.0,0.0,63,0.00,,CLR,0.00,VWS V14.01,2013-08-25 12:59:00,
2013-08-25 07:04:00,56.9,44.5,29.82,NE,36,0.0,0.0,63,0.00,,CLR,0.00,VWS V14.01,2013-08-25 13:04:00,
2013-08-25 07:09:00,56.7,44.3,29.82,NE,36,0.0,0.0,63,0.00,,CLR,0.00,VWS V14.01,2013-08-25 13:09:00,
2013-08-25 07:14:00,56.5,44.9,29.82,NE,36,0.0,0.0,65,0.00,,CLR,0.00,VWS V14.01,2013-08-25 13:14:00,
2013-08-25 07:19:00,56.3,44.7,29.84,NE,36,0.0,0.0,65,0.00,,CLR,0.00,VWS V14.01,2013-08-25 13:19:00,
2013-08-25 07:24:00,56.3,44.7,29.84,NE,36,0.0,0.0,65,0.00,,CLR,0.00,VWS V14.01,2013-08-25 13:24:00,
2013-08-25 07:29:00,56.2,45.8,29.84,NE,36,0.0,0.0,68,0.00,,CLR,0.00,VWS V14.01,2013-08-25 13:29:00,
2013-08-25 07:34:00,56.3,45.1,29.85,NE,36,0.0,0.0,66,0.00,,CLR,0.00,VWS V14.01,2013-08-25 13:34:00,
2013-08-25 07:39:00,56.5,45.7,29.85,NE,36,0.0,0.0,67,0.00,,CLR,0.00,VWS V14.01,2013-08-25 13:39:00,
2013-08-25 07:45:00,56.5,45.3,29.85,NE,36,0.0,0.0,66,0.00,,CLR,0.00,VWS V14.01,2013-08-25 13:45:00,
2013-08-25 07:50:00,56.6,45.4,29.84,NE,36,0.0,0.0,66,0.00,,CLR,0.00,VWS V14.01,2013-08-25 13:50:00,
2013-08-25 07:55:00,56.6,44.6,29.84,NE,36,0.0,0.0,64,0.00,,CLR,0.00,VWS V14.01,2013-08-25 13:55:00,
2013-08-25 08:00:00,56.6,45.4,29.84,ENE,77,0.0,1.0,66,0.00,,CLR,0.00,VWS V14.01,2013-08-25 14:00:00,
2013-08-25 08:05:00,56.7,45.1,29.84,North,355,0.0,1.0,65,0.00,,CLR,0.00,VWS V14.01,2013-08-25 14:05:00,
2013-08-25 08:10:00,56.9,45.3,29.84,North,355,0.0,0.0,65,0.00,,CLR,0.00,VWS V14.01,2013-08-25 14:10:00,
2013-08-25 08:15:00,57.0,45.4,29.84,North,355,0.0,0.0,65,0.00,,CLR,0.00,VWS V14.01,2013-08-25 14:15:00,
2013-08-25 08:20:00,57.2,46.0,29.85,North,355,0.0,1.0,66,0.00,,CLR,0.00,VWS V14.01,2013-08-25 14:20:00,
2013-08-25 08:25:00,57.2,46.0,29.85,North,355,0.0,0.0,66,0.00,,CLR,0.00,VWS V14.01,2013-08-25 14:25:00,
2013-08-25 08:30:00,57.2,46.4,29.85,North,355,0.0,0.0,67,0.00,,CLR,0.00,VWS V14.01,2013-08-25 14:30:00,
2013-08-25 08:35:00,57.2,46.8,29.85,North,355,0.0,0.0,68,0.00,,CLR,0.00,VWS V14.01,2013-08-25 14:35:00,
2013-08-25 08:40:00,57.3,46.8,29.85,North,355,0.0,1.0,68,0.00,,CLR,0.00,VWS V14.01,2013-08-25 14:40:00,
2013-08-25 08:45:00,57.5,47.4,29.85,North,355,0.0,1.0,69,0.00,,CLR,0.00,VWS V14.01,2013-08-25 14:45:00,
2013-08-25 08:50:00,57.8,47.3,29.85,North,355,0.0,0.0,68,0.00,,CLR,0.00,VWS V14.01,2013-08-25 14:50:00,
2013-08-25 08:55:00,58.0,47.5,29.85,North,355,0.0,0.0,68,0.00,,CLR,0.00,VWS V14.01,2013-08-25 14:55:00,
2013-08-25 09:00:00,58.4,46.3,29.85,North,355,0.0,1.0,64,0.00,,CLR,0.00,VWS V14.01,2013-08-25 15:00:00,
2013-08-25 09:05:00,59.0,47.7,29.86,West,278,0.0,3.0,66,0.00,,CLR,0.00,VWS V14.01,2013-08-25 15:05:00,
2013-08-25 09:10:00,59.5,47.3,29.86,West,273,0.0,1.0,64,0.00,,CLR,0.00,VWS V14.01,2013-08-25 15:10:00,
2013-08-25 09:15:00,59.8,47.6,29.86,West,281,0.0,1.0,64,0.00,,CLR,0.00,VWS V14.01,2013-08-25 15:15:00,
2013-08-25 09:20:00,59.9,46.9,29.86,West,280,0.0,1.0,62,0.00,,CLR,0.00,VWS V14.01,2013-08-25 15:20:00,
2013-08-25 09:25:00,60.1,47.0,29.86,West,280,0.0,0.0,62,0.00,,CLR,0.00,VWS V14.01,2013-08-25 15:25:00,
2013-08-25 09:30:00,60.1,47.5,29.86,West,281,0.0,1.0,63,0.00,,CLR,0.00,VWS V14.01,2013-08-25 15:30:00,
2013-08-25 09:35:00,60.4,48.2,29.86,WNW,287,0.0,1.0,64,0.00,,CLR,0.00,VWS V14.01,2013-08-25 15:35:00,
2013-08-25 09:41:00,60.5,47.4,29.86,WNW,286,0.0,1.0,62,0.00,,CLR,0.00,VWS V14.01,2013-08-25 15:41:00,
2013-08-25 09:46:00,60.9,47.8,29.85,WNW,286,0.0,0.0,62,0.00,,CLR,0.00,VWS V14.01,2013-08-25 15:46:00,
2013-08-25 09:51:00,61.0,47.5,29.85,WNW,286,0.0,1.0,61,0.00,,CLR,0.00,VWS V14.01,2013-08-25 15:51:00,
2013-08-25 09:56:00,61.2,48.1,29.85,WNW,286,0.0,1.0,62,0.00,,CLR,0.00,VWS V14.01,2013-08-25 15:56:00,
2013-08-25 10:01:00,61.5,47.5,29.85,WNW,286,0.0,0.0,60,0.00,,CLR,0.00,VWS V14.01,2013-08-25 16:01:00,
2013-08-25 10:06:00,62.0,47.5,29.85,North,360,0.0,3.0,59,0.00,,CLR,0.00,VWS V14.01,2013-08-25 16:06:00,
2013-08-25 10:11:00,62.3,47.8,29.85,North,360,0.0,0.0,59,0.00,,CLR,0.00,VWS V14.01,2013-08-25 16:11:00,
2013-08-25 10:16:00,62.7,48.2,29.85,North,360,0.0,1.0,59,0.00,,CLR,0.00,VWS V14.01,2013-08-25 16:16:00,
2013-08-25 10:21:00,63.1,47.6,29.85,SW,235,0.0,1.0,57,0.00,,CLR,0.00,VWS V14.01,2013-08-25 16:21:00,
2013-08-25 10:26:00,63.9,47.9,29.85,WSW,238,0.0,1.0,56,0.00,,CLR,0.00,VWS V14.01,2013-08-25 16:26:00,
2013-08-25 10:31:00,64.5,48.5,29.85,NE,36,0.0,3.0,56,0.00,,CLR,0.00,VWS V14.01,2013-08-25 16:31:00,
2013-08-25 10:36:00,64.8,47.8,29.85,NE,36,0.0,0.0,54,0.00,,CLR,0.00,VWS V14.01,2013-08-25 16:36:00,
2013-08-25 10:41:00,65.3,47.8,29.85,North,355,0.0,4.0,53,0.00,,CLR,0.00,VWS V14.01,2013-08-25 16:41:00,
2013-08-25 10:46:00,66.0,47.4,29.83,North,355,0.0,0.0,51,0.00,,CLR,0.00,VWS V14.01,2013-08-25 16:46:00,
2013-08-25 10:51:00,66.9,46.6,29.83,North,355,0.0,2.0,48,0.00,,CLR,0.00,VWS V14.01,2013-08-25 16:51:00,
2013-08-25 10:56:00,68.3,47.9,29.83,North,5,0.0,3.0,48,0.00,,CLR,0.00,VWS V14.01,2013-08-25 16:56:00,
2013-08-25 11:01:00,69.6,46.8,29.82,NE,52,0.0,2.0,44,0.00,,CLR,0.00,VWS V14.01,2013-08-25 17:01:00,
2013-08-25 11:06:00,70.6,45.8,29.82,NNE,12,0.0,4.0,41,0.00,,CLR,0.00,VWS V14.01,2013-08-25 17:06:00,
2013-08-25 11:11:00,71.8,47.5,29.82,NNE,21,1.0,1.0,42,0.00,,CLR,0.00,VWS V14.01,2013-08-25 17:11:00,
2013-08-25 11:16:00,72.8,47.1,29.81,North,360,0.0,2.0,40,0.00,,CLR,0.00,VWS V14.01,2013-08-25 17:16:00,
2013-08-25 11:21:00,73.7,48.6,29.81,North,9,0.0,2.0,41,0.00,,CLR,0.00,VWS V14.01,2013-08-25 17:21:00,
2013-08-25 11:26:00,74.6,48.0,29.81,North,5,0.0,3.0,39,0.00,,CLR,0.00,VWS V14.01,2013-08-25 17:26:00,
2013-08-25 11:31:00,75.3,45.8,29.81,North,11,0.0,1.0,35,0.00,,CLR,0.00,VWS V14.01,2013-08-25 17:31:00,
2013-08-25 11:36:00,76.0,46.4,29.81,North,360,0.0,3.0,35,0.00,,CLR,0.00,VWS V14.01,2013-08-25 17:36:00,
2013-08-25 11:41:00,76.5,46.8,29.81,North,355,0.0,2.0,35,0.00,,CLR,0.00,VWS V14.01,2013-08-25 17:41:00,
2013-08-25 11:46:00,77.0,44.9,29.80,North,9,0.0,4.0,32,0.00,,CLR,0.00,VWS V14.01,2013-08-25 17:46:00,
2013-08-25 11:51:00,76.8,47.1,29.80,West,273,0.0,3.0,35,0.00,,CLR,0.00,VWS V14.01,2013-08-25 17:51:00,
2013-08-25 11:56:00,76.3,45.9,29.80,WSW,255,0.0,0.0,34,0.00,,CLR,0.00,VWS V14.01,2013-08-25 17:56:00,
2013-08-25 12:01:00,76.3,45.1,29.81,SE,139,2.0,2.0,33,0.00,,CLR,0.00,VWS V14.01,2013-08-25 18:01:00,
2013-08-25 12:06:00,76.3,46.7,29.81,NW,322,1.0,1.0,35,0.00,,CLR,0.00,VWS V14.01,2013-08-25 18:06:00,
2013-08-25 12:12:00,76.5,45.3,29.81,WNW,297,2.0,6.0,33,0.00,,CLR,0.00,VWS V14.01,2013-08-25 18:12:00,
2013-08-25 12:17:00,76.7,46.2,29.80,NNE,20,0.0,1.0,34,0.00,,CLR,0.00,VWS V14.01,2013-08-25 18:17:00,
2013-08-25 12:22:00,77.0,44.1,29.80,North,5,0.0,0.0,31,0.00,,CLR,0.00,VWS V14.01,2013-08-25 18:22:00,
2013-08-25 12:27:00,77.6,44.6,29.80,ENE,73,0.0,0.0,31,0.00,,CLR,0.00,VWS V14.01,2013-08-25 18:27:00,
2013-08-25 12:32:00,78.3,46.0,29.79,NNW,329,3.0,3.0,32,0.00,,CLR,0.00,VWS V14.01,2013-08-25 18:32:00,
2013-08-25 12:37:00,78.8,45.6,29.79,NW,316,0.0,0.0,31,0.00,,CLR,0.00,VWS V14.01,2013-08-25 18:37:00,
2013-08-25 12:42:00,79.0,43.2,29.79,WNW,283,0.0,0.0,28,0.00,,CLR,0.00,VWS V14.01,2013-08-25 18:42:00,
2013-08-25 12:47:00,79.0,43.2,29.78,WNW,292,1.0,2.0,28,0.00,,CLR,0.00,VWS V14.01,2013-08-25 18:47:00,
2013-08-25 12:52:00,78.6,43.7,29.78,NNW,342,1.0,1.0,29,0.00,,CLR,0.00,VWS V14.01,2013-08-25 18:52:00,
2013-08-25 12:57:00,79.0,47.5,29.78,WSW,251,1.0,1.0,33,0.00,,CLR,0.00,VWS V14.01,2013-08-25 18:57:00,
2013-08-25 13:02:00,79.4,46.2,29.77,NW,311,0.0,0.0,31,0.00,,CLR,0.00,VWS V14.01,2013-08-25 19:02:00,
2013-08-25 13:07:00,79.9,43.9,29.77,NNE,33,0.0,0.0,28,0.00,,CLR,0.00,VWS V14.01,2013-08-25 19:07:00,
2013-08-25 13:12:00,81.1,46.8,29.77,North,9,0.0,0.0,30,0.00,,CLR,0.00,VWS V14.01,2013-08-25 19:12:00,
2013-08-25 13:17:00,81.4,45.2,29.76,WSW,248,6.0,6.0,28,0.00,,CLR,0.00,VWS V14.01,2013-08-25 19:17:00,
2013-08-25 13:22:00,81.2,45.0,29.76,West,259,2.0,3.0,28,0.00,,CLR,0.00,VWS V14.01,2013-08-25 19:22:00,
2013-08-25 13:27:00,81.4,48.7,29.76,SW,219,1.0,1.0,32,0.00,,CLR,0.00,VWS V14.01,2013-08-25 19:27:00,
2013-08-25 13:32:00,81.8,47.4,29.75,East,90,0.0,1.0,30,0.00,,CLR,0.00,VWS V14.01,2013-08-25 19:32:00,
2013-08-25 13:37:00,82.8,45.4,29.75,East,97,0.0,0.0,27,0.00,,CLR,0.00,VWS V14.01,2013-08-25 19:37:00,
2013-08-25 13:42:00,83.6,45.1,29.75,ESE,115,0.0,0.0,26,0.00,,CLR,0.00,VWS V14.01,2013-08-25 19:42:00,
2013-08-25 13:47:00,84.1,45.5,29.73,ESE,115,0.0,0.0,26,0.00,,CLR,0.00,VWS V14.01,2013-08-25 19:47:00,
2013-08-25 13:52:00,84.9,44.1,29.73,ESE,115,0.0,1.0,24,0.00,,CLR,0.00,VWS V14.01,2013-08-25 19:52:00,
2013-08-25 13:57:00,85.3,47.6,29.73,WSW,248,4.0,4.0,27,0.00,,CLR,0.00,VWS V14.01,2013-08-25 19:57:00,
2013-08-25 14:02:00,84.3,43.6,29.73,WSW,244,1.0,6.0,24,0.00,,CLR,0.00,VWS V14.01,2013-08-25 20:02:00,
2013-08-25 14:07:00,83.6,45.1,29.73,WNW,302,0.0,0.0,26,0.00,,CLR,0.00,VWS V14.01,2013-08-25 20:07:00,
2013-08-25 14:12:00,84.0,45.5,29.73,North,5,0.0,1.0,26,0.00,,CLR,0.00,VWS V14.01,2013-08-25 20:12:00,
2013-08-25 14:18:00,84.9,44.1,29.72,NNW,344,2.0,4.0,24,0.00,,CLR,0.00,VWS V14.01,2013-08-25 20:18:00,
2013-08-25 14:23:00,86.3,45.3,29.72,NNW,329,0.0,1.0,24,0.00,,CLR,0.00,VWS V14.01,2013-08-25 20:23:00,
2013-08-25 14:28:00,87.0,47.0,29.72,West,277,0.0,2.0,25,0.00,,CLR,0.00,VWS V14.01,2013-08-25 20:28:00,
2013-08-25 14:33:00,86.7,43.3,29.69,West,269,0.0,3.0,22,0.00,,CLR,0.00,VWS V14.01,2013-08-25 20:33:00,
2013-08-25 14:38:00,85.9,43.8,29.69,SW,222,1.0,1.0,23,0.00,,CLR,0.00,VWS V14.01,2013-08-25 20:38:00,
2013-08-25 14:43:00,86.1,42.8,29.69,North,10,0.0,1.0,22,0.00,,CLR,0.00,VWS V14.01,2013-08-25 20:43:00,
2013-08-25 14:48:00,86.1,44.0,29.69,WSW,240,2.0,3.0,23,0.00,,CLR,0.00,VWS V14.01,2013-08-25 20:48:00,
2013-08-25 14:53:00,85.3,44.5,29.69,SW,231,0.0,1.0,24,0.00,,CLR,0.00,VWS V14.01,2013-08-25 20:53:00,
2013-08-25 14:58:00,85.5,44.6,29.69,East,91,0.0,0.0,24,0.00,,CLR,0.00,VWS V14.01,2013-08-25 20:58:00,
2013-08-25 15:03:00,85.9,46.0,29.68,NNE,27,1.0,1.0,25,0.00,,CLR,0.00,VWS V14.01,2013-08-25 21:03:00,
2013-08-25 15:08:00,86.1,47.2,29.68,ENE,74,0.0,3.0,26,0.00,,CLR,0.00,VWS V14.01,2013-08-25 21:08:00,
2013-08-25 15:13:00,86.5,46.5,29.68,East,86,0.0,3.0,25,0.00,,CLR,0.00,VWS V14.01,2013-08-25 21:13:00,
2013-08-25 15:18:00,86.7,43.3,29.68,West,269,0.0,6.0,22,0.00,,CLR,0.00,VWS V14.01,2013-08-25 21:18:00,
2013-08-25 15:23:00,86.1,44.0,29.68,NNW,331,0.0,10.0,23,0.00,,CLR,0.00,VWS V14.01,2013-08-25 21:23:00,
2013-08-25 15:28:00,85.9,47.1,29.68,SSE,164,0.0,1.0,26,0.00,,CLR,0.00,VWS V14.01,2013-08-25 21:28:00,
2013-08-25 15:33:00,86.1,42.8,29.67,WSW,247,0.0,4.0,22,0.00,,CLR,0.00,VWS V14.01,2013-08-25 21:33:00,
2013-08-25 15:38:00,85.7,44.8,29.67,West,261,2.0,2.0,24,0.00,,CLR,0.00,VWS V14.01,2013-08-25 21:38:00,
2013-08-25 15:43:00,85.1,42.0,29.67,WSW,256,3.0,3.0,22,0.00,,CLR,0.00,VWS V14.01,2013-08-25 21:43:00,
2013-08-25 15:48:00,84.7,42.8,29.68,West,265,0.0,3.0,23,0.00,,CLR,0.00,VWS V14.01,2013-08-25 21:48:00,
2013-08-25 15:53:00,85.3,45.5,29.68,NNW,341,0.0,1.0,25,0.00,,CLR,0.00,VWS V14.01,2013-08-25 21:53:00,
2013-08-25 15:58:00,86.1,44.0,29.68,WNW,285,0.0,6.0,23,0.00,,CLR,0.00,VWS V14.01,2013-08-25 21:58:00,
2013-08-25 16:03:00,86.3,39.2,29.65,ENE,57,2.0,6.0,19,0.00,,CLR,0.00,VWS V14.01,2013-08-25 22:03:00,
2013-08-25 16:08:00,87.2,42.5,29.65,West,272,1.0,2.0,21,0.00,,CLR,0.00,VWS V14.01,2013-08-25 22:08:00,
2013-08-25 16:13:00,88.0,36.2,29.65,WNW,296,1.0,6.0,16,0.00,,CLR,0.00,VWS V14.01,2013-08-25 22:13:00,
2013-08-25 16:18:00,89.5,32.2,29.65,WNW,292,1.0,9.0,13,0.00,,CLR,0.00,VWS V14.01,2013-08-25 22:18:00,
2013-08-25 16:23:00,90.1,32.7,29.65,NE,35,1.0,3.0,13,0.00,,CLR,0.00,VWS V14.01,2013-08-25 22:23:00,
2013-08-25 16:28:00,89.5,34.1,29.65,North,5,3.0,6.0,14,0.00,,CLR,0.00,VWS V14.01,2013-08-25 22:28:00,
2013-08-25 16:33:00,89.5,39.0,29.65,NE,34,0.0,2.0,17,0.00,,CLR,0.00,VWS V14.01,2013-08-25 22:33:00,
2013-08-25 16:39:00,89.9,37.8,29.65,North,355,0.0,4.0,16,0.00,,CLR,0.00,VWS V14.01,2013-08-25 22:39:00,
2013-08-25 16:44:00,89.7,39.1,29.65,ESE,109,0.0,6.0,17,0.00,,CLR,0.00,VWS V14.01,2013-08-25 22:44:00,
2013-08-25 16:49:00,89.9,39.3,29.64,SSE,150,1.0,5.0,17,0.00,,CLR,0.00,VWS V14.01,2013-08-25 22:49:00,
2013-08-25 16:54:00,90.7,41.4,29.64,North,360,0.0,4.0,18,0.00,,CLR,0.00,VWS V14.01,2013-08-25 22:54:00,
2013-08-25 16:59:00,91.2,40.3,29.64,NW,318,0.0,1.0,17,0.00,,CLR,0.00,VWS V14.01,2013-08-25 22:59:00,
2013-08-25 17:04:00,91.0,35.2,29.63,NNW,346,1.0,1.0,14,0.00,,CLR,0.00,VWS V14.01,2013-08-25 23:04:00,
2013-08-25 17:09:00,90.5,38.2,29.63,NW,313,0.0,4.0,16,0.00,,CLR,0.00,VWS V14.01,2013-08-25 23:09:00,
2013-08-25 17:14:00,89.5,34.1,29.63,NNW,336,0.0,4.0,14,0.00,,CLR,0.00,VWS V14.01,2013-08-25 23:14:00,
2013-08-25 17:19:00,88.4,34.9,29.65,NNE,16,2.0,4.0,15,0.00,,CLR,0.00,VWS V14.01,2013-08-25 23:19:00,
2013-08-25 17:24:00,88.2,36.4,29.65,NNE,13,1.0,3.0,16,0.00,,CLR,0.00,VWS V14.01,2013-08-25 23:24:00,
2013-08-25 17:29:00,88.0,37.8,29.65,NE,50,0.0,3.0,17,0.00,,CLR,0.00,VWS V14.01,2013-08-25 23:29:00,
2013-08-25 17:34:00,86.7,42.1,29.65,ENE,62,2.0,2.0,21,0.00,,CLR,0.00,VWS V14.01,2013-08-25 23:34:00,
2013-08-25 17:39:00,85.7,42.5,29.65,ENE,77,2.0,2.0,22,0.00,,CLR,0.00,VWS V14.01,2013-08-25 23:39:00,
2013-08-25 17:44:00,84.7,44.0,29.65,ENE,78,0.0,1.0,24,0.00,,CLR,0.00,VWS V14.01,2013-08-25 23:44:00,
2013-08-25 17:49:00,84.3,43.6,29.68,ENE,78,1.0,1.0,24,0.00,,CLR,0.00,VWS V14.01,2013-08-25 23:49:00,
2013-08-25 17:54:00,83.4,41.8,29.68,North,9,0.0,1.0,23,0.00,,CLR,0.00,VWS V14.01,2013-08-25 23:54:00,
2013-08-25 17:59:00,82.2,41.8,29.68,SSE,163,0.0,1.0,24,0.00,,CLR,0.00,VWS V14.01,2013-08-25 23:59:00,
2013-08-25 18:04:00,80.9,40.8,29.68,WSW,242,4.0,5.0,24,0.00,,CLR,0.00,VWS V14.01,2013-08-26 00:04:00,
2013-08-25 18:09:00,80.1,42.2,29.68,WSW,247,1.0,2.0,26,0.00,,CLR,0.00,VWS V14.01,2013-08-26 00:09:00,
2013-08-25 18:14:00,79.6,42.7,29.68,SSW,208,0.0,0.0,27,0.00,,CLR,0.00,VWS V14.01,2013-08-26 00:14:00,
2013-08-25 18:19:00,79.2,44.2,29.72,SE,142,0.0,1.0,29,0.00,,CLR,0.00,VWS V14.01,2013-08-26 00:19:00,
2013-08-25 18:24:00,78.8,45.6,29.72,SE,143,0.0,0.0,31,0.00,,CLR,0.00,VWS V14.01,2013-08-26 00:24:00,
2013-08-25 18:29:00,78.5,42.7,29.72,SSW,203,2.0,2.0,28,0.00,,CLR,0.00,VWS V14.01,2013-08-26 00:29:00,
2013-08-25 18:34:00,78.1,40.5,29.74,WNW,290,1.0,2.0,26,0.00,,CLR,0.00,VWS V14.01,2013-08-26 00:34:00,
2013-08-25 18:39:00,77.9,41.3,29.74,SW,229,5.0,13.0,27,0.00,,CLR,0.00,VWS V14.01,2013-08-26 00:39:00,
2013-08-25 18:44:00,77.2,44.2,29.74,WSW,244,1.0,5.0,31,0.00,,CLR,0.00,VWS V14.01,2013-08-26 00:44:00,
2013-08-25 18:50:00,76.7,43.8,29.72,WSW,244,0.0,1.0,31,0.00,,CLR,0.00,VWS V14.01,2013-08-26 00:50:00,
2013-08-25 18:55:00,76.1,44.1,29.72,WSW,245,0.0,0.0,32,0.00,,CLR,0.00,VWS V14.01,2013-08-26 00:55:00,
2013-08-25 19:00:00,75.8,44.7,29.72,WSW,246,0.0,1.0,33,0.00,,CLR,0.00,VWS V14.01,2013-08-26 01:00:00,
2013-08-25 19:05:00,75.4,45.1,29.73,North,360,0.0,0.0,34,0.00,,CLR,0.00,VWS V14.01,2013-08-26 01:05:00,
2013-08-25 19:10:00,74.9,44.7,29.73,West,269,0.0,1.0,34,0.00,,CLR,0.00,VWS V14.01,2013-08-26 01:10:00,
2013-08-25 19:15:00,74.6,44.4,29.73,SE,132,0.0,2.0,34,0.00,,CLR,0.00,VWS V14.01,2013-08-26 01:15:00,
2013-08-25 19:20:00,74.2,43.3,29.74,South,177,0.0,3.0,33,0.00,,CLR,0.00,VWS V14.01,2013-08-26 01:20:00,
2013-08-25 19:25:00,74.0,43.1,29.74,SSW,207,3.0,3.0,33,0.00,,CLR,0.00,VWS V14.01,2013-08-26 01:25:00,
2013-08-25 19:30:00,73.9,43.8,29.74,WSW,254,2.0,4.0,34,0.00,,CLR,0.00,VWS V14.01,2013-08-26 01:30:00,
2013-08-25 19:35:00,73.7,42.8,29.75,WSW,254,1.0,3.0,33,0.00,,CLR,0.00,VWS V14.01,2013-08-26 01:35:00,
2013-08-25 19:40:00,73.5,44.2,29.75,WSW,254,0.0,1.0,35,0.00,,CLR,0.00,VWS V14.01,2013-08-26 01:40:00,
2013-08-25 19:45:00,73.3,44.0,29.75,West,279,0.0,1.0,35,0.00,,CLR,0.00,VWS V14.01,2013-08-26 01:45:00,
2013-08-25 19:50:00,73.0,43.8,29.76,SW,233,0.0,3.0,35,0.00,,CLR,0.00,VWS V14.01,2013-08-26 01:50:00,
2013-08-25 19:55:00,72.7,43.5,29.76,SW,222,0.0,1.0,35,0.00,,CLR,0.00,VWS V14.01,2013-08-26 01:55:00,
2013-08-25 20:00:00,72.3,43.9,29.76,WSW,251,0.0,5.0,36,0.00,,CLR,0.00,VWS V14.01,2013-08-26 02:00:00,
2013-08-25 20:05:00,72.0,44.3,29.77,WSW,251,0.0,1.0,37,0.00,,CLR,0.00,VWS V14.01,2013-08-26 02:05:00,
2013-08-25 20:10:00,71.8,45.5,29.77,WSW,251,0.0,0.0,39,0.00,,CLR,0.00,VWS V14.01,2013-08-26 02:10:00,
2013-08-25 20:15:00,71.3,47.0,29.77,WSW,251,0.0,0.0,42,0.00,,CLR,0.00,VWS V14.01,2013-08-26 02:15:00,
2013-08-25 20:20:00,70.8,46.0,29.78,WSW,251,0.0,0.0,41,0.00,,CLR,0.00,VWS V14.01,2013-08-26 02:20:00,
2013-08-25 20:25:00,70.1,46.0,29.78,WSW,250,0.0,1.0,42,0.00,,CLR,0.00,VWS V14.01,2013-08-26 02:25:00,
2013-08-25 20:30:00,69.4,46.6,29.78,SW,233,0.0,3.0,44,0.00,,CLR,0.00,VWS V14.01,2013-08-26 02:30:00,
2013-08-25 20:35:00,68.9,46.7,29.79,SW,233,0.0,0.0,45,0.00,,CLR,0.00,VWS V14.01,2013-08-26 02:35:00,
2013-08-25 20:40:00,68.3,46.2,29.79,SW,233,0.0,0.0,45,0.00,,CLR,0.00,VWS V14.01,2013-08-26 02:40:00,
2013-08-25 20:45:00,67.8,46.9,29.79,SW,233,0.0,0.0,47,0.00,,CLR,0.00,VWS V14.01,2013-08-26 02:45:00,
2013-08-25 20:50:00,67.3,47.5,29.80,SW,233,0.0,0.0,49,0.00,,CLR,0.00,VWS V14.01,2013-08-26 02:50:00,
2013-08-25 20:55:00,66.8,47.0,29.80,SW,233,0.0,0.0,49,0.00,,CLR,0.00,VWS V14.01,2013-08-26 02:55:00,
2013-08-25 21:00:00,66.3,47.1,29.81,SW,233,0.0,0.0,50,0.00,,CLR,0.00,VWS V14.01,2013-08-26 03:00:00,
2013-08-25 21:05:00,65.6,46.5,29.81,SW,233,0.0,0.0,50,0.00,,CLR,0.00,VWS V14.01,2013-08-26 03:05:00,
2013-08-25 21:11:00,65.3,46.7,29.81,SW,233,0.0,0.0,51,0.00,,CLR,0.00,VWS V14.01,2013-08-26 03:11:00,
2013-08-25 21:16:00,65.0,46.5,29.81,SW,233,0.0,0.0,51,0.00,,CLR,0.00,VWS V14.01,2013-08-26 03:16:00,
2013-08-25 21:21:00,64.5,46.5,29.81,SW,233,0.0,0.0,52,0.00,,CLR,0.00,VWS V14.01,2013-08-26 03:21:00,
2013-08-25 21:26:00,64.2,46.7,29.81,SW,233,0.0,0.0,53,0.00,,CLR,0.00,VWS V14.01,2013-08-26 03:26:00,
2013-08-25 21:31:00,63.9,46.0,29.80,SW,233,0.0,0.0,52,0.00,,CLR,0.00,VWS V14.01,2013-08-26 03:31:00,
2013-08-25 21:36:00,63.7,46.8,29.80,SW,233,0.0,0.0,54,0.00,,CLR,0.00,VWS V14.01,2013-08-26 03:36:00,
2013-08-25 21:41:00,63.4,46.0,29.80,SW,233,0.0,0.0,53,0.00,,CLR,0.00,VWS V14.01,2013-08-26 03:41:00,
2013-08-25 21:46:00,63.1,46.2,29.82,SW,233,0.0,0.0,54,0.00,,CLR,0.00,VWS V14.01,2013-08-26 03:46:00,
2013-08-25 21:51:00,62.6,45.7,29.82,SW,233,0.0,0.0,54,0.00,,CLR,0.00,VWS V14.01,2013-08-26 03:51:00,
2013-08-25 21:56:00,62.4,45.5,29.82,SW,233,0.0,0.0,54,0.00,,CLR,0.00,VWS V14.01,2013-08-26 03:56:00,
2013-08-25 22:01:00,62.1,45.8,29.81,SW,233,0.0,0.0,55,0.00,,CLR,0.00,VWS V14.01,2013-08-26 04:01:00,
2013-08-25 22:02:00,62.0,45.7,29.81,SW,233,0.0,0.0,55,0.00,,CLR,0.00,VWS V14.01,2013-08-26 04:02:00,
2013-08-25 22:03:00,62.0,45.7,29.81,SW,233,0.0,0.0,55,0.00,,CLR,0.00,VWS V14.01,2013-08-26 04:03:00,
2013-08-25 22:09:00,61.5,45.7,29.81,SW,233,0.0,0.0,56,0.00,,CLR,0.00,VWS V14.01,2013-08-26 04:09:00,
2013-08-25 22:14:00,61.3,45.5,29.81,SW,233,0.0,0.0,56,0.00,,CLR,0.00,VWS V14.01,2013-08-26 04:14:00,
2013-08-25 22:19:00,61.2,45.4,29.79,SW,233,0.0,0.0,56,0.00,,CLR,0.00,VWS V14.01,2013-08-26 04:19:00,
2013-08-25 22:24:00,61.2,45.4,29.79,SW,233,0.0,0.0,56,0.00,,CLR,0.00,VWS V14.01,2013-08-26 04:24:00,
2013-08-25 22:29:00,61.2,44.9,29.79,SW,233,0.0,0.0,55,0.00,,CLR,0.00,VWS V14.01,2013-08-26 04:29:00,
2013-08-25 22:34:00,61.2,44.9,29.79,SW,233,0.0,0.0,55,0.00,,CLR,0.00,VWS V14.01,2013-08-26 04:34:00,
2013-08-25 22:39:00,61.2,44.9,29.79,SW,233,0.0,0.0,55,0.00,,CLR,0.00,VWS V14.01,2013-08-26 04:39:00,
2013-08-25 22:44:00,61.0,45.2,29.79,SW,233,0.0,0.0,56,0.00,,CLR,0.00,VWS V14.01,2013-08-26 04:44:00,
2013-08-25 22:49:00,60.9,45.1,29.79,SW,233,0.0,0.0,56,0.00,,CLR,0.00,VWS V14.01,2013-08-26 04:49:00,
2013-08-25 22:54:00,60.9,45.1,29.79,SW,233,0.0,0.0,56,0.00,,CLR,0.00,VWS V14.01,2013-08-26 04:54:00,
2013-08-25 22:59:00,60.7,44.9,29.79,SW,233,0.0,0.0,56,0.00,,CLR,0.00,VWS V14.01,2013-08-26 04:59:00,
2013-08-25 23:04:00,60.5,44.7,29.79,SW,233,0.0,0.0,56,0.00,,CLR,0.00,VWS V14.01,2013-08-26 05:04:00,
2013-08-25 23:09:00,60.4,44.7,29.79,SW,233,0.0,0.0,56,0.00,,CLR,0.00,VWS V14.01,2013-08-26 05:09:00,
2013-08-25 23:14:00,60.2,44.5,29.79,SW,233,0.0,0.0,56,0.00,,CLR,0.00,VWS V14.01,2013-08-26 05:14:00,
2013-08-25 23:19:00,60.2,44.5,29.77,SW,232,0.0,1.0,56,0.00,,CLR,0.00,VWS V14.01,2013-08-26 05:19:00,
2013-08-25 23:24:00,60.5,43.8,29.77,NE,44,0.0,1.0,54,0.00,,CLR,0.00,VWS V14.01,2013-08-26 05:24:00,
2013-08-25 23:29:00,60.9,42.7,29.77,East,87,0.0,2.0,51,0.00,,CLR,0.00,VWS V14.01,2013-08-26 05:29:00,
2013-08-25 23:34:00,61.3,43.0,29.78,East,87,0.0,0.0,51,0.00,,CLR,0.00,VWS V14.01,2013-08-26 05:34:00,
2013-08-25 23:39:00,61.5,43.2,29.78,East,82,0.0,1.0,51,0.00,,CLR,0.00,VWS V14.01,2013-08-26 05:39:00,
2013-08-25 23:44:00,61.6,43.3,29.78,East,82,0.0,0.0,51,0.00,,CLR,0.00,VWS V14.01,2013-08-26 05:44:00,
2013-08-25 23:49:00,61.5,43.2,29.78,NE,55,0.0,2.0,51,0.00,,CLR,0.00,VWS V14.01,2013-08-26 05:49:00,
2013-08-25 23:54:00,61.5,43.2,29.78,NE,55,0.0,0.0,51,0.00,,CLR,0.00,VWS V14.01,2013-08-26 05:54:00,
2013-08-25 23:59:00,61.3,43.0,29.78,NE,55,0.0,0.0,51,0.00,,CLR,0.00,VWS V14.01,2013-08-26 05:59:00,